Simultaneous Nadir Overpasses (SNOs) Predictions

Prediction of SNOs between NOAA-19 and NPP Satellite Orbit:

Table of predicted SNOs for the next 14.0 days since TLE Epoch: 7/29/2023
Index Date (NOAA-19) Time (NOAA-19) Lat,Lon (NOAA-19) SZA (NOAA-19 ) Date (NPP) Time (NPP) Lat,Lon (NPP) SZA (NPP ) Distance(km) Time Diff (sec)
1 08/09/2023 08:28:22 -74.90,-140.38 120.52 08/09/2023 08:29:36 -74.90,-140.19 120.55 5.28 74
2 08/09/2023 09:19:19 74.93, 26.96 59.51 08/09/2023 09:20:22 74.92, 27.07 59.48 3.36 63
3 08/09/2023 10:10:20 -74.95,-165.74 120.47 08/09/2023 10:11:07 -74.96,-165.72 120.47 1.45 47
4 08/09/2023 11:01:17 74.97, 1.60 59.57 08/09/2023 11:01:53 74.97, 1.55 59.56 1.54 36
5 08/09/2023 11:52:18 -74.99, 168.90 120.41 08/09/2023 11:52:37 -74.96, 168.89 120.45 2.93 19
6 08/09/2023 12:43:16 74.97, -23.90 59.58 08/09/2023 12:43:23 74.98, -23.84 59.59 2.03 7
7 08/09/2023 13:34:17 -74.99, 143.40 120.40 08/09/2023 13:34:08 -75.02, 143.36 120.36 3.44 9
8 08/09/2023 14:25:14 75.01, -49.26 59.64 08/09/2023 14:24:53 74.98, -49.23 59.61 3.25 21
9 08/09/2023 15:16:15 -75.03, 118.04 120.34 08/09/2023 15:15:38 -75.02, 117.97 120.34 2.13 37
10 08/09/2023 16:07:13 75.01, -74.77 59.65 08/09/2023 16:06:24 75.04, -74.76 59.70 3.22 49
11 08/09/2023 16:58:14 -75.03, 92.54 120.33 08/09/2023 16:57:08 -75.03, 92.58 120.31 1.30 66
12 08/09/2023 17:49:09 75.14, -99.84 59.78 08/09/2023 17:47:56 75.14,-100.43 59.83 16.72 73



Historial Predications of SNOs between NOAA-19 and NPP
